Regional Weather Roundup
Issued by NWS

Home | Current Version | Previous Version | Text Only | Print | Product List | Glossary On
Versions: 1 2 3 4 5 6 7 8 9 10 11 12 13 14 15 16 17 18 19 20 21 22 23 24 25 26 27 28 29 30 31 32 33 34 35 36 37 38 39 40 41 42 43 44 45 46 47 48 49 50
000
ASUS43 KFSD 230110
RWRSD

WEATHER ROUNDUP FOR SOUTH DAKOTA
NATIONAL WEATHER SERVICE SIOUX FALLS SD
800 PM CDT WED OCT 22 2014

NOTE: "FAIR" INDICATES FEW OR NO CLOUDS BELOW 12,000 FEET WITH NO
SIGNIFICANT WEATHER AND/OR OBSTRUCTIONS TO VISIBILITY.


SDZ001>005-009-010-012>017-230200-
NORTHWEST AND NORTH CENTRAL SOUTH DAKOTA

CITY           SKY/WX    TMP DP  RH WIND       PRES   REMARKS
BUFFALO          N/A     49  27  42 W9        29.91R
FAITH            N/A     51  31  46 W7        29.98R
MOBRIDGE       CLEAR     54  38  54 CALM      29.91R
$$

SDZ012>016-024>037-041>051-057-063-072>074-230200-
SOUTHWEST AND SOUTH CENTRAL SOUTH DAKOTA

CITY           SKY/WX    TMP DP  RH WIND       PRES   REMARKS
RAPID CTY ARPT CLEAR     47  32  56 NE8       30.02R
PIERRE         CLEAR     59  40  49 S6        29.96R
CUSTER         CLEAR     44  24  45 NE3       30.07R
ELLSWORTH AFB  CLEAR     56  30  38 NE6       30.01R
PHILIP         CLEAR     50  33  52 W3        29.99R
PINE RIDGE     CLEAR     45  34  65 CALM      30.03R
SPEARFISH      FAIR      45  32  61 S10       30.02S
WINNER         FAIR      57  41  55 S6        30.01R
$$

SDZ004>011-016>023-039-040-230200-
NORTHEAST SOUTH DAKOTA

CITY           SKY/WX    TMP DP  RH WIND       PRES   REMARKS
ABERDEEN       MOCLDY    51  49  92 S6        29.94S
WATERTOWN      CLOUDY    54  52  93 W12       29.96R
SISSETON         N/A     57  54  89 W12       29.92R
$$

SDZ017-020-022-023-036>040-048>070-230200-
SOUTHEAST SOUTH DAKOTA

CITY           SKY/WX    TMP DP  RH WIND       PRES   REMARKS
SIOUX FALLS    CLOUDY    57  55  93 W7        30.00R
HURON          MOCLDY    53  51  93 SW5       29.98R
CHAMBERLAIN    CLEAR     45  44  95 CALM      30.00R
MITCHELL       MOCLDY    55  53  93 SW5       30.00R
YANKTON        CLOUDY    55  54  94 W6        30.02R
$$

ABBREVIATIONS USED IN REMARKS
   TC - TEMPERATURE IN CELSIUS
  WCI - WIND CHILL INDEX
   HX - HEAT INDEX
  VSB - VISIBILITY




USA.gov is the U.S. government's official web portal to all federal, state and local government web resources and services.